STARLINK-35668

Last updated on Wed Dec 10 2025 00:02:05 GMT+0000 (Coordinated Universal Time)

1 66401U 25257X 25343.66668981 .00087227 00000+0 21708-2 0 9990 2 66401 53.1592 278.6141 0001408 92.4494 206.3150 15.39549480 6009
UTC large
Height (km)
Speed (km/s)
/
Latitude / Longitude
Inclination (degrees)
Orbital Period (minutes)
Azimuth
Elevation
Range (km)
Doppler Factor

Next 0 passes for location: London (51.5072 / 0.1276)

Sorry there are no passes over London.